Flag for France Weather past 2 weeks in Saint-Étienne, France

Now
59 °F

Clear.


Feels Like: 59 °F
Forecast: 53 / 71 °F
Wind: No wind

Location: St-Etienne Boutheon

Current Time: Aug 30, 2014 at 3:01:31 AM

Latest Report: Aug 30, 2014 at 2:30 AM


Visibility: N/A

Pressure: 30.15 "Hg

Humidity: 94%

Dew point: 57 °F

Location of Saint-ÉtienneLocation

Historic Weather in Saint-Étienne — Graph

°F

Saint-Étienne temperature yesterday

Maximum temperature yesterday: 75 °F (at 4:00 PM)
Minimum temperature yesterday: 59 °F (at 6:00 AM)
Average temperature yesterday: 66 °F

Past Weeks' High & Low Weather Summary

 TemperatureHumidityPressure
High81 °F (Aug 25, 5:30 PM)94% (Aug 16, 4:00 AM)30.21 "Hg (Aug 16, 4:00 AM)
Low48 °F (Aug 17, 3:30 AM)28% (Aug 25, 4:30 PM)29.83 "Hg (Aug 26, 5:30 AM)
Average63 °F66%30.05 "Hg
* Reported Aug 15 1:00 AM — Aug 30 1:30 AM, Saint-Étienne, Weather by CustomWeather, © 2014

Note: Actual official high and low records may vary slightly from our data, if they occured in-between our weather recording intervals... More about our weather records

Advertising

Saint-Étienne weather history for previous 24 hours

 ConditionsComfort  
Time TempWeatherWind HumidityBarometerVisibility
1:30 AM
Aug 30
59 °FClear.No wind94%30.15 "HgN/A
1:00 AM59 °FLight fog.No wind94%30.15 "Hg1 mi
12:30 AM59 °FFog.No wind94%30.15 "Hg0 mi
12:00 AM61 °FClear.2 mph88%30.15 "HgN/A
11:30 PM
Aug 29
61 °FPassing clouds.2 mph94%30.15 "HgN/A
11:00 PM61 °FClear.3 mph94%30.15 "HgN/A
9:00 PM63 °FOvercast.No wind88%30.15 "HgN/A
8:30 PM63 °FRain. Mostly cloudy.2 mph88%30.12 "HgN/A
8:00 PM63 °FRain. Fog.14 mph88%30.12 "Hg3 mi
7:30 PM64 °FLight rain. Partly sunny.10 mph83%30.12 "HgN/A
7:00 PM68 °FPartly sunny.10 mph78%30.09 "HgN/A
6:30 PM70 °FMild.9 mph73%30.09 "HgN/A
6:00 PM73 °FPartly sunny.10 mph65%30.09 "HgN/A
5:30 PM75 °FPartly sunny.8 mph57%30.09 "HgN/A
5:00 PM73 °FPartly sunny.5 mph61%30.09 "HgN/A
4:30 PM75 °FPartly sunny.5 mph57%30.09 "HgN/A
4:00 PM75 °FBroken clouds.5 mph57%30.09 "HgN/A
3:30 PM73 °FBroken clouds.5 mph61%30.09 "HgN/A
2:30 PM73 °FBroken clouds.2 mph61%30.09 "HgN/A
2:00 PM72 °FBroken clouds.6 mph65%30.09 "HgN/A
1:30 PM70 °FBroken clouds.5 mph73%30.09 "HgN/A
1:00 PM68 °FLight rain. Broken clouds.5 mph78%30.09 "HgN/A
12:30 PM68 °FLight rain. Broken clouds.8 mph73%30.12 "HgN/A
12:00 PM68 °FBroken clouds.7 mph78%30.12 "HgN/A
11:30 AM68 °FPartly sunny.6 mph78%30.12 "HgN/A
11:00 AM66 °FLight rain. Broken clouds.No wind83%30.12 "HgN/A
10:30 AM66 °FPartly sunny.3 mph83%30.12 "HgN/A
10:00 AM66 °FBroken clouds.1 mph83%30.12 "HgN/A
9:30 AM64 °FBroken clouds.3 mph83%30.12 "HgN/A
9:00 AM64 °FBroken clouds.3 mph88%30.09 "HgN/A
8:30 AM64 °FPartly sunny.2 mph83%30.09 "HgN/A
8:00 AM63 °FPartly sunny.5 mph88%30.09 "HgN/A
7:30 AM63 °FPassing clouds.3 mph88%30.09 "HgN/A
7:00 AM61 °FPassing clouds.No wind94%30.09 "HgN/A
6:30 AM59 °FClear.2 mph88%30.07 "Hg10 mi
6:00 AM59 °FClear.2 mph88%30.07 "Hg10 mi
5:30 AM61 °FClear.3 mph83%30.07 "HgN/A
5:00 AM61 °FClear.2 mph88%30.07 "HgN/A
4:30 AM63 °FClear.1 mph83%30.07 "HgN/A
4:00 AM61 °FClear.No wind88%30.07 "HgN/A
3:30 AM61 °FClear.2 mph83%30.07 "HgN/A
3:00 AM63 °FClear.2 mph83%30.07 "HgN/A
Weather by CustomWeather, © 2014

See weather overviewHow to use our weather pages